Regional Weather Roundup
Issued by NWS

Home | Current Version | Previous Version | Text Only | Print | Product List | Glossary Off
Versions: 1 2 3 4 5 6 7 8 9 10 11 12 13 14 15 16 17 18 19 20 21 22 23 24 25 26 27 28 29 30 31 32 33 34 35 36 37 38 39 40 41 42 43 44 45 46 47 48 49 50

000
ASUS45 KCYS 072110
RWRWY

WYOMING REGIONAL WEATHER ROUNDUP
NATIONAL WEATHER SERVICE CHEYENNE WY
300 PM MDT TUE JUL 07 2015

NOTE:  "FAIR" INDICATES FEW OR NO CLOUDS BELOW 12,000 FEET
WITH NO SIGNIFICANT WEATHER AND/OR OBSTRUCTIONS TO VISIBILITY.

WYZ001-072200-
YELLOWSTONE NATIONAL PARK

CITY           SKY/WX    TMP DP  RH WIND       PRES   REMARKS
LK YELLOWSTONE   N/A     65  43  44 VRB3      30.24F
W YELLOWSTONE  NOT AVBL

$$
WYZ002>013-054>058-071-098>099-072200-
NORTHERN WYOMING

CITY           SKY/WX    TMP DP  RH WIND       PRES   REMARKS
JACKSON        FAIR      75  46  35 SW5       30.11F
CODY           FAIR      77  50  38 N20G25    30.07F
GREYBULL       FAIR      86  43  22 CALM      29.96F
WORLAND        FAIR      79  49  34 N6        30.00F
SHERIDAN       FAIR      77  49  37 W10       30.04F
BUFFALO        CLOUDY    65  55  70 W9        30.11F
GILLETTE       FAIR      77  47  34 SW5       30.04F
HULETT         FAIR      77  50  38 SW3       30.06F
NEWCASTLE      FAIR      73  52  46 SE15      30.08F

$$
WYZ014>020-022>026-101>103-072200-
CENTRAL WYOMING

CITY           SKY/WX    TMP DP  RH WIND       PRES   REMARKS
BIG PINEY      FAIR      65  49  56 NW14      30.17F
PINEDALE       CLOUDY    68  43  40 E7        30.18S
DUBOIS         CLOUDY    64  43  45 E17G29    30.19R
LANDER         PTSUNNY   76  51  41 VRB3      30.08F
RIVERTON       PTSUNNY   77  49  37 N8        30.08F
CASPER         LGT RAIN  66  52  60 W13       30.09S
DOUGLAS        FAIR      76  53  44 SE9       30.08F HAZE

$$
WYZ021-027>030-104>119-072200-
SOUTHERN WYOMING

CITY           SKY/WX    TMP DP  RH WIND       PRES   REMARKS
EVANSTON       FAIR      63  48  58 W6        30.19S
KEMMERER       LGT RAIN  54  50  87 N12       30.22R
FORT BRIDGER   TSTM      61  55  82 W10G23    30.20R
ROCK SPRINGS   FAIR      69  53  56 SW9       30.14F
DIXON          TSTM      62  51  68 S14       30.16F
RAWLINS        LGT RAIN  61  52  72 NE5       30.15F
SARATOGA       FAIR      70  46  43 SE7       30.17F THUNDER
LARAMIE        LGT RAIN  58  55  90 SE17      30.20F FOG
CHEYENNE       CLOUDY    63  52  67 S14       30.18F HAZE
TORRINGTON     CLOUDY    71  54  54 SE20G26   30.09F
PINE BLUFFS    CLOUDY    66  50  55 S12G18    30.15F

$$


USA.gov is the U.S. government's official web portal to all federal, state and local government web resources and services.